User: anonymous   Login
Location: Beccas
(43.4309°N, 0.1528°E)
Time: 07:32:03
(UTC+00:00)
Language:

CSL-04 Rocket - Orbit

View from above orbital plane
View from above orbital plane
View from above satellite
View from above satellite

Ground track
Ground track

The orbit data is extracted from the following two-line orbital elements,

1 25732U 99025C   22016.91694476 -.00000004  00000-0  20030-4 0  9995
2 25732  98.8769  58.5622 0037299   2.0569  47.7663 14.17711548173786
Epoch (UTC): 16 January 2022 22:00:24
Eccentricity: 0.0037299
inclination: 98.8769°
perigee height: 806 km
apogee height: 860 km
right ascension of ascending node: 58.5622°
argument of perigee: 2.0569°
revolutions per day: 14.17711548
mean anomaly at epoch: 47.7663°
orbit number at epoch: 17378

The dashed part of the orbit path shows where the satellite is in the earth's shadow,  

DLR